User: anonymous
Location: Washington
(38.8950°N, 77.0370°W)
Time: 15:28:27
(UTC-04:00)
Language:

IDEFIX/ARIANE 42P - Orbit

View from above orbital plane
View from above orbital plane
View from above satellite
View from above satellite

Ground track
Ground track

The orbit data is extracted from the following two-line orbital elements,

1 27422U 02021B   14258.20468039  .00000136  00000-0  69762-4 0  5837
2 27422 098.2922 296.3758 0011580 342.4157 059.1862 14.29048945642999
Epoch (UTC): 15 September 2014 04:54:44
Eccentricity: 0.0011580
inclination: 98.2922°
perigee height: 786 km
apogee height: 803 km
right ascension of ascending node: 296.3758°
argument of perigee: 342.4157°
revolutions per day: 14.29048945
mean anomaly at epoch: 59.1862°
orbit number at epoch: 64299

The dashed part of the orbit path shows where the satellite is in the earth's shadow,  

DLR